Wind_Speed
21 21 21 21 21 22 22 23 24 25 25 26 26 28 29 30 32 32 33 33 33 33 34 35 36 37 38 39 39 40 42 43 44 46 48 50 52 54 56 56 58 59 59 58
18 18 18 17 17 18 19 20 21 22 22 23 24 26 27 28 29 29 30 30 31 32 32 32 34 35 36 37 38 39 40 42 44 45 45 46 48 50 52 54 56 57 58 58
15 15 16 16 15 15 16 17 18 19 20 21 22 24 24 25 26 26 27 28 29 29 30 31 32 34 35 36 36 37 38 39 41 42 44 46 46 47 49 51 52 55 56 56
13 13 14 14 13 13 13 14 15 16 17 18 19 20 20 22 23 24 25 26 28 29 29 30 31 31 33 34 34 35 36 37 39 39 40 43 44 45 46 48 48 51 53 55
11 11 11 12 11 11 11 11 12 13 14 15 16 17 18 19 20 22 23 24 26 27 28 28 29 29 30 30 31 32 34 35 37 38 39 40 41 42 44 45 47 48 51 53
8 8 8 9 9 9 10 10 10 11 12 13 13 14 15 15 16 18 19 21 23 24 25 26 27 27 27 27 27 29 30 30 31 33 35 36 38 39 41 43 44 46 47 49
7 6 6 7 8 8 9 9 9 9 10 10 10 12 12 13 15 16 18 19 20 22 22 23 24 24 24 24 24 25 26 27 28 29 31 32 34 35 37 39 41 43 44 45
5 5 5 5 6 6 7 7 7 7 8 8 9 11 11 12 14 15 16 17 18 18 18 19 19 19 19 20 20 21 21 22 23 24 25 27 28 28 30 33 35 38 40 40
3 3 4 4 4 5 5 5 5 5 7 8 9 10 11 11 12 14 14 15 15 15 15 15 15 14 14 15 16 17 17 18 18 19 20 22 24 25 27 30 32 33 34 35
1 1 3 3 3 3 4 3 4 5 6 8 8 9 10 10 11 12 12 12 12 11 11 11 11 9 10 12 13 14 14 13 13 14 16 18 20 21 23 26 28 30 31 32
1 0 1 3 3 4 4 4 5 6 7 8 9 9 10 11 11 11 10 10 9 7 8 8 7 8 9 10 11 11 11 10 10 11 12 13 14 16 18 21 23 26 28 30
0 1 2 3 3 4 5 5 5 7 8 8 9 9 10 11 11 10 8 7 7 6 6 7 7 8 10 10 10 10 10 10 9 10 10 11 12 14 16 18 20 23 25 27
1 1 2 3 3 4 5 5 6 8 8 8 8 9 9 9 8 8 8 7 6 6 6 6 7 8 9 10 11 11 11 10 9 9 9 10 11 12 14 15 17 19 20 22
2 3 3 4 4 4 5 6 7 8 9 8 8 8 8 8 8 8 8 7 6 7 7 8 7 9 10 11 11 11 11 11 10 10 10 9 9 10 11 12 14 17 20 22
4 4 5 4 5 5 6 6 8 9 8 8 7 8 7 7 7 8 8 7 7 7 8 8 9 10 11 11 12 12 12 12 12 11 10 9 9 9 10 13 15 18 20 23
6 6 5 5 5 6 6 7 8 8 8 8 7 7 7 8 8 8 9 9 8 8 8 10 11 11 12 12 11 12 13 13 13 13 11 10 11 12 13 14 16 18 21 23
6 7 7 6 7 7 8 9 9 9 8 8 8 8 8 8 9 9 10 10 10 10 10 11 11 12 13 13 12 13 13 13 14 13 13 13 13 14 15 16 18 20 22 23
7 8 9 9 9 10 9 10 10 10 9 9 9 9 9 10 10 10 11 11 12 11 11 12 12 13 13 13 13 14 13 14 14 14 14 14 14 16 17 19 20 21 22 23
9 10 10 11 11 11 11 11 11 11 10 11 11 11 11 12 12 12 13 14 14 14 13 13 14 14 14 14 14 15 15 15 16 16 16 16 17 18 20 21 22 22 23 24
11 12 12 13 13 12 12 12 12 12 12 13 13 13 13 13 13 14 15 16 16 16 15 15 16 16 16 16 16 16 17 17 18 18 18 19 20 21 22 22 23 24 24 24
13 14 14 15 15 14 14 14 13 13 13 14 14 14 15 15 16 16 17 17 17 17 17 17 17 17 17 18 18 18 19 19 20 21 22 23 23 23 24 25 25 26 26 26
16 16 17 17 17 16 16 16 15 15 15 15 15 15 16 17 18 18 19 19 19 19 20 20 19 19 20 20 20 21 21 22 23 24 26 26 26 26 26 27 27 27 27 27
18 18 19 18 17 17 17 17 17 17 17 17 17 18 18 18 19 20 21 21 22 22 22 22 22 22 22 23 23 24 24 25 26 27 28 29 29 29 29 29 29 29 29 29
19 20 20 19 18 18 18 18 19 19 20 20 20 20 20 21 21 21 22 22 23 23 24 24 25 25 25 25 26 26 27 28 28 29 30 31 31 32 32 31 30 30 30 30
21 22 22 21 19 20 20 20 20 21 22 23 23 23 23 24 24 24 24 24 24 25 26 27 28 28 28 28 29 29 30 30 31 32 32 33 34 34 33 33 32 31 31 31
21 23 22 21 20 21 20 21 22 22 23 24 24 25 25 25 25 25 26 26 26 27 28 29 29 30 30 31 31 32 33 33 34 34 35 36 36 36 35 35 34 33 33 33
Wind_Direction
211 217 222 226 231 236 240 243 246 248 251 253 256 258 260 262 264 265 265 266 266 267 269 269 270 270 268 265 265 264 262 260 258 256 255 253 252 251 250 248 246 245 244 244
209 216 221 225 232 235 238 242 247 250 254 256 258 261 262 264 265 264 264 266 268 269 270 272 272 272 270 268 266 265 263 261 259 257 255 253 253 251 249 247 245 243 243 243
212 217 220 226 231 233 239 246 250 252 254 260 263 264 265 267 266 266 267 270 271 272 275 276 276 273 271 269 267 266 266 264 262 259 256 254 252 250 248 247 246 243 242 242
211 216 220 225 230 236 245 251 253 254 257 260 263 265 266 266 266 268 271 273 274 276 278 279 277 275 273 271 268 266 265 265 263 260 258 254 253 251 249 248 246 243 241 241
202 208 218 224 231 241 247 251 255 256 259 261 265 268 268 267 268 270 272 276 278 279 281 281 279 278 277 273 270 268 267 268 264 261 259 256 253 250 248 247 245 243 242 242
195 203 210 220 231 243 244 248 251 254 260 264 268 273 272 270 272 276 278 281 282 282 283 284 281 281 280 276 273 274 274 271 267 263 258 255 252 249 248 247 244 242 242 242
191 198 211 224 235 239 239 242 249 258 262 267 273 279 281 277 281 283 284 285 286 287 288 288 287 285 283 278 278 279 277 274 270 264 258 253 251 250 248 245 242 241 240 240
193 203 220 229 232 234 236 238 252 264 269 277 281 286 288 287 289 289 290 290 291 293 292 292 291 289 286 283 283 285 280 276 270 264 257 251 251 249 247 243 241 240 239 238
192 210 225 225 222 230 226 233 241 266 277 285 288 291 292 292 290 292 293 294 295 299 299 299 303 298 295 296 295 294 290 280 273 267 259 253 249 249 247 244 242 239 237 238
144 183 204 207 214 223 223 232 251 277 286 291 293 297 301 297 296 295 296 297 301 304 306 307 309 308 310 309 309 306 300 290 281 273 263 256 252 251 249 245 242 239 236 238
156 239 225 228 229 230 238 257 274 290 295 297 299 308 312 309 306 304 303 304 308 315 319 326 331 328 328 326 321 320 312 300 286 278 271 258 252 249 249 246 244 240 238 241
53 284 265 248 246 249 260 274 284 291 295 295 298 311 314 315 313 316 313 315 316 326 335 341 348 348 343 340 332 325 323 314 300 290 278 269 266 260 254 248 245 241 245 245
324 308 281 267 265 264 268 277 288 294 299 301 306 317 318 321 324 328 324 324 329 337 349 352 355 358 358 355 347 341 340 333 318 303 291 279 267 266 260 252 247 247 249 248
294 296 289 284 282 280 274 280 291 302 306 305 307 314 321 327 331 334 331 332 338 338 341 343 346 350 353 354 352 347 346 347 342 330 316 301 287 278 270 263 255 257 256 253
299 292 285 285 286 289 286 288 297 305 309 309 308 314 320 326 331 335 339 337 337 340 341 342 340 343 346 345 345 347 348 347 344 337 327 314 303 290 282 273 269 267 263 262
294 290 288 290 293 297 294 296 301 307 310 312 314 318 318 325 331 333 338 341 340 338 338 338 338 337 337 340 341 339 339 340 339 337 329 317 306 298 295 288 280 276 273 271
291 289 290 292 293 296 298 299 305 309 309 311 314 311 312 318 324 326 328 331 330 330 329 331 336 339 340 338 337 336 337 339 341 340 337 327 313 305 298 294 289 286 283 279
295 293 293 291 292 298 301 300 301 304 305 308 310 310 309 311 314 313 315 318 319 322 325 330 334 334 334 336 336 334 334 335 334 333 329 324 319 314 306 300 299 296 290 287
298 294 294 295 294 295 296 297 299 300 300 300 303 305 307 307 308 307 308 310 311 314 317 322 326 329 328 328 330 330 328 325 324 323 322 318 314 312 309 305 304 301 298 293
298 296 294 292 293 296 296 295 298 298 299 296 298 299 301 304 304 304 305 305 306 307 308 312 315 318 321 322 322 322 322 322 321 320 318 316 313 310 308 306 304 303 301 297
295 295 296 295 293 293 292 293 294 297 297 295 296 297 296 297 299 302 303 302 302 303 303 304 306 309 312 315 317 317 319 320 321 320 318 317 316 314 310 308 306 304 301 297
293 293 293 293 292 292 289 288 287 291 294 294 294 295 297 297 298 299 299 299 300 301 301 300 302 304 306 309 310 312 315 316 317 318 317 315 314 312 311 309 306 304 303 300
289 291 290 290 291 289 287 286 286 288 290 292 292 293 295 298 299 300 300 300 298 299 298 298 299 300 302 304 305 307 309 311 313 314 315 313 311 311 310 308 305 302 301 299
286 287 288 289 289 287 286 286 286 287 288 289 291 291 292 295 298 299 300 300 299 298 297 296 297 297 299 301 303 304 306 307 309 310 311 312 311 310 310 307 305 302 300 299
285 284 285 287 287 286 287 287 287 287 289 289 289 289 290 292 295 298 300 299 298 298 298 297 296 296 296 297 298 300 302 304 306 308 309 310 310 308 307 305 304 303 301 300
281 282 283 285 285 285 285 286 288 289 289 288 288 289 289 291 293 296 299 300 299 299 297 297 297 296 296 296 296 297 298 300 303 305 307 308 309 307 304 303 301 301 301 300
Height
5658 5663 5666 5669 5672 5675 5678 5680 5682 5684 5685 5687 5688 5690 5691 5691 5692 5692 5692 5692 5692 5692 5692 5691 5691 5690 5689 5690 5690 5691 5692 5693 5694 5697 5699 5702 5706 5710 5714 5718 5723 5728 5733 5738
5658 5661 5664 5667 5669 5672 5674 5676 5678 5680 5680 5682 5683 5684 5685 5685 5685 5685 5685 5685 5685 5685 5684 5683 5682 5681 5680 5679 5679 5680 5680 5682 5683 5685 5687 5689 5692 5696 5700 5704 5709 5714 5719 5725
5656 5660 5662 5665 5667 5669 5671 5673 5674 5676 5676 5677 5679 5680 5680 5679 5679 5679 5679 5678 5678 5677 5676 5675 5673 5672 5670 5670 5669 5669 5670 5670 5671 5672 5674 5677 5679 5683 5687 5691 5695 5700 5706 5712
5655 5658 5660 5663 5665 5667 5668 5669 5671 5672 5673 5674 5675 5675 5675 5674 5674 5674 5674 5673 5672 5671 5669 5667 5665 5664 5662 5661 5660 5660 5659 5659 5660 5661 5662 5664 5667 5670 5674 5678 5682 5687 5693 5698
5655 5657 5659 5661 5663 5664 5666 5667 5668 5669 5669 5670 5670 5670 5671 5670 5670 5670 5669 5668 5666 5665 5663 5661 5658 5656 5654 5652 5651 5651 5650 5650 5649 5649 5650 5652 5655 5659 5662 5666 5670 5675 5680 5686
5655 5656 5658 5660 5661 5662 5663 5665 5666 5666 5667 5668 5667 5667 5667 5666 5666 5665 5664 5663 5661 5659 5657 5654 5652 5649 5647 5645 5643 5642 5641 5640 5639 5639 5640 5641 5644 5648 5651 5655 5659 5663 5668 5673
5655 5656 5657 5659 5660 5661 5662 5664 5665 5664 5664 5665 5665 5664 5664 5663 5662 5661 5660 5658 5656 5654 5651 5649 5646 5643 5640 5638 5637 5635 5633 5632 5631 5631 5631 5633 5635 5637 5641 5645 5649 5653 5658 5663
5655 5657 5657 5658 5659 5660 5661 5662 5663 5663 5663 5663 5662 5661 5662 5660 5659 5657 5656 5654 5652 5649 5646 5643 5640 5638 5635 5633 5630 5628 5626 5625 5623 5623 5624 5625 5627 5629 5632 5636 5640 5644 5649 5653
5655 5657 5657 5657 5658 5659 5660 5660 5661 5662 5661 5661 5660 5660 5659 5657 5656 5654 5652 5650 5648 5645 5642 5640 5637 5634 5631 5629 5626 5623 5621 5619 5618 5618 5618 5619 5621 5623 5625 5628 5632 5635 5640 5644
5656 5657 5657 5657 5658 5659 5660 5660 5660 5660 5660 5659 5659 5658 5657 5655 5653 5651 5649 5647 5645 5642 5640 5637 5635 5632 5629 5626 5623 5620 5617 5615 5614 5614 5614 5615 5616 5618 5619 5622 5625 5628 5632 5637
5656 5657 5658 5658 5658 5659 5660 5660 5659 5659 5658 5658 5657 5659 5655 5652 5650 5649 5647 5645 5643 5641 5638 5636 5633 5630 5627 5624 5621 5618 5615 5613 5612 5611 5611 5611 5612 5613 5614 5616 5619 5622 5626 5629
5657 5658 5658 5658 5658 5658 5658 5658 5658 5658 5658 5656 5655 5658 5652 5650 5648 5646 5645 5643 5641 5639 5637 5635 5632 5629 5626 5623 5620 5617 5615 5612 5611 5610 5609 5609 5609 5609 5610 5612 5614 5616 5619 5622
5658 5659 5658 5658 5660 5659 5657 5657 5657 5657 5656 5655 5654 5656 5651 5649 5647 5645 5643 5641 5639 5638 5636 5634 5632 5629 5626 5623 5620 5617 5614 5611 5609 5608 5607 5606 5606 5606 5606 5608 5610 5612 5614 5616
5658 5658 5659 5659 5658 5657 5657 5657 5656 5655 5654 5654 5653 5652 5650 5648 5646 5644 5642 5640 5639 5637 5635 5633 5631 5629 5626 5623 5620 5617 5614 5611 5608 5606 5605 5604 5603 5604 5604 5605 5607 5608 5610 5611
5658 5658 5658 5658 5657 5656 5656 5656 5655 5654 5653 5653 5652 5650 5649 5647 5645 5644 5642 5640 5638 5637 5635 5633 5631 5628 5625 5623 5620 5617 5614 5611 5608 5606 5604 5603 5602 5602 5603 5603 5603 5604 5605 5606
5658 5658 5657 5657 5656 5656 5655 5655 5654 5653 5652 5651 5650 5649 5648 5646 5644 5643 5641 5640 5638 5636 5634 5632 5629 5627 5624 5622 5619 5616 5613 5611 5608 5605 5603 5602 5601 5601 5600 5600 5600 5600 5600 5600
5657 5657 5656 5656 5656 5655 5655 5654 5652 5651 5650 5649 5648 5648 5646 5645 5643 5642 5640 5639 5637 5636 5633 5631 5628 5626 5623 5620 5618 5615 5613 5610 5608 5606 5603 5601 5600 5599 5598 5597 5596 5595 5594 5593
5656 5655 5655 5654 5655 5654 5655 5652 5651 5650 5649 5648 5647 5645 5644 5643 5642 5640 5639 5637 5636 5634 5632 5629 5627 5624 5622 5619 5617 5615 5612 5610 5607 5605 5602 5600 5598 5597 5595 5594 5592 5590 5588 5587
5654 5654 5653 5652 5652 5652 5652 5650 5648 5648 5648 5646 5645 5644 5643 5641 5640 5639 5637 5635 5633 5632 5629 5627 5625 5623 5620 5618 5616 5613 5611 5608 5606 5603 5601 5598 5596 5594 5591 5589 5587 5584 5582 5581
5653 5652 5651 5650 5649 5649 5650 5648 5646 5647 5646 5644 5643 5642 5640 5639 5638 5637 5634 5632 5630 5628 5626 5624 5622 5620 5618 5616 5613 5611 5608 5606 5603 5600 5598 5595 5592 5590 5587 5584 5582 5579 5577 5574
5650 5649 5649 5647 5646 5646 5646 5645 5644 5645 5644 5641 5640 5638 5637 5636 5634 5633 5630 5628 5627 5625 5623 5621 5619 5617 5615 5612 5610 5608 5605 5602 5600 5597 5594 5590 5587 5584 5581 5578 5575 5573 5570 5567
5647 5646 5645 5644 5643 5645 5642 5641 5641 5640 5638 5637 5636 5634 5633 5631 5630 5628 5626 5624 5622 5621 5619 5617 5615 5613 5611 5608 5606 5603 5601 5598 5595 5592 5588 5585 5582 5579 5575 5572 5568 5565 5562 5559
5643 5643 5641 5641 5642 5639 5637 5637 5636 5635 5634 5633 5631 5630 5629 5627 5625 5623 5621 5619 5617 5615 5614 5612 5610 5608 5605 5603 5601 5598 5595 5593 5590 5586 5583 5579 5575 5571 5568 5564 5560 5557 5554 5551
5639 5638 5636 5635 5635 5634 5633 5631 5631 5630 5629 5627 5626 5625 5624 5622 5620 5618 5616 5614 5612 5610 5607 5606 5604 5602 5599 5597 5594 5592 5589 5586 5583 5579 5576 5572 5568 5564 5559 5556 5552 5549 5545 5542
5634 5632 5630 5630 5630 5628 5628 5626 5625 5624 5623 5622 5621 5619 5618 5616 5614 5612 5610 5608 5605 5603 5601 5599 5597 5594 5592 5590 5587 5584 5581 5578 5575 5571 5568 5564 5559 5555 5551 5547 5543 5539 5536 5532
5628 5626 5625 5625 5624 5623 5622 5621 5619 5618 5617 5616 5614 5613 5611 5609 5608 5606 5603 5601 5599 5596 5594 5591 5589 5586 5584 5582 5579 5576 5573 5570 5566 5563 5559 5554 5550 5545 5541 5537 5533 5529 5526 5522